Regional Weather Roundup
Issued by NWS

Home | Current Version | Previous Version | Text Only | Print | Product List | Glossary Off
Versions: 1 2 3 4 5 6 7 8 9 10 11 12 13 14 15 16 17 18 19 20 21 22 23 24 25 26 27 28 29 30 31 32 33 34 35 36 37 38 39 40 41 42 43 44 45 46 47 48 49 50

071
ASUS43 KOAX 060102
RWRNE

WEATHER ROUNDUP FOR NEBRASKA
NATIONAL WEATHER SERVICE OMAHA NE
800 PM CDT THU MAY 05 2016

NOTES: SATELLITE DATA IS BEING USED TO AUGMENT CLOUD COVER ABOVE
       12000 FEET.
       "FAIR" INDICATES FEW OR NO CLOUDS BELOW 12,000 FEET WITH NO
       SIGNIFICANT WEATHER AND/OR OBSTRUCTIONS TO VISIBILITY.

  * THESE STATIONS DO NOT REPORT WEATHER SUCH AS RAIN...SNOW OR FOG.

NEZ001>004-019>022-054>056-060200-
NEBRASKA PANHANDLE

CITY           SKY/WX    TMP DP  RH WIND       PRES   REMARKS
SCOTTSBLUFF    CLOUDY    77  44  30 SE6       29.92F
ALLIANCE       CLOUDY    70  49  47 S8        29.92F
CHADRON        PTCLDY    78  50  37 S6        29.87S
KIMBALL        CLEAR     72  37  27 SE10      30.00S
SIDNEY         CLOUDY    76  43  30 S12       29.98F
$$

NEZ057>060-069>072-079>082-060200-
SOUTHWEST NEBRASKA

CITY           SKY/WX    TMP DP  RH WIND       PRES   REMARKS
NORTH PLATTE   CLEAR     74  48  39 S12       29.96S
IMPERIAL       CLOUDY    74  46  36 S13       29.97S
MCCOOK         CLOUDY    74  49  41 SE10      29.98S
$$

NEZ005>010-023>029-035>040-094-060200-
NORTH CENTRAL NEBRASKA

CITY           SKY/WX    TMP DP  RH WIND       PRES   REMARKS
VALENTINE      CLEAR     79  42  26 S14       29.87F
AINSWORTH      CLEAR     75  46  34 S13       29.91F
BROKEN BOW     CLEAR     75  49  39 S8        29.97S
ORD            CLEAR     74  48  39 S7        29.95S
$$

NEZ041-046>049-061>064-073>077-083>087-060200-
SOUTH CENTRAL NEBRASKA

CITY           SKY/WX    TMP DP  RH WIND       PRES   REMARKS
GRAND ISLAND   CLEAR     74  43  32 S8        29.98S
AURORA         CLEAR     76  40  27 S6        29.98S
HASTINGS       CLEAR     74  43  32 S7        29.99S
KEARNEY *      CLEAR     73  45  35 S12       29.99F
YORK           CLEAR     75  37  25 S9        29.98S
$$

NEZ011>018-030>034-042>045-060200-
NORTHEAST NEBRASKA

CITY           SKY/WX    TMP DP  RH WIND       PRES   REMARKS
NORFOLK        CLEAR     72  42  34 S9        29.95S
ALBION         CLEAR     73  42  31 S5        29.97S
BLAIR          CLEAR     72  43  35 SE7       29.99F
COLUMBUS *     CLEAR     75  39  27 SE5       29.98S
FREMONT        CLEAR     72  42  34 SE7       29.98F
TEKAMAH        CLEAR     70  52  52 SE9       29.97S
$$

NEZ050>053-065>068-078-088>093-060200-
SOUTHEAST NEBRASKA

CITY           SKY/WX    TMP DP  RH WIND       PRES   REMARKS
LINCOLN        CLEAR     75  41  29 SE7       29.99F
OMAHA EPPLEY   MOCLDY    71  44  37 SE7       29.99S
BEATRICE       CLEAR     73  43  34 S5        30.00S
FALLS CITY     CLEAR     70  41  34 E5        30.00F
$$

NEZ044-045-051>053-067-060200-
OMAHA AREA

CITY           SKY/WX    TMP DP  RH WIND       PRES   REMARKS
OMAHA EPPLEY   MOCLDY    71  44  37 SE7       29.99S
BLAIR          CLEAR     72  43  35 SE7       29.99F
FREMONT        CLEAR     72  42  34 SE7       29.98F
OFFUTT AFB     CLEAR     71  43  36 SE3       29.98F
$$




USA.gov is the U.S. government's official web portal to all federal, state and local government web resources and services.